SCP
0 0 0 0 0 1 1 1 1 1 0 0 0 0 0 0 0 0 0 0 0 1 1 1 1 1 1 1 1 1 1 1 1 1 1 1 0 0 1 1 1 0 0
0 0 0 0 0 0 1 1 1 0 0 0 0 0 0 0 0 0 0 0 0 1 1 1 1 1 1 1 1 1 1 1 1 1 1 1 0 0 0 0 1 1 1
0 0 0 0 0 0 0 0 0 0 0 0 0 0 0 0 0 0 0 0 0 1 1 1 1 1 1 1 1 1 1 1 1 1 1 1 1 0 0 0 1 1 1
0 0 0 0 0 0 0 0 0 0 0 0 0 0 0 0 0 0 0 0 0 0 1 1 1 1 1 1 1 1 1 1 1 1 1 1 1 1 1 0 1 1 1
0 0 0 0 0 0 0 0 0 0 0 0 0 0 0 0 0 0 0 0 0 0 0 1 1 1 1 1 1 1 1 1 1 1 1 1 1 1 1 0 0 0 1
0 0 0 0 0 0 0 0 0 0 0 0 0 0 0 0 0 0 0 0 0 0 0 0 0 0 0 0 1 1 1 1 1 1 1 1 1 1 1 1 1 0 1
0 0 0 0 0 0 0 0 0 0 0 0 0 0 0 0 0 0 0 0 0 0 0 0 0 0 0 0 0 0 1 1 1 1 1 1 1 1 1 1 1 1 1
0 0 0 0 0 0 0 0 0 0 0 0 0 0 0 0 0 0 0 0 0 0 0 0 0 0 0 0 0 0 0 1 1 1 1 1 1 1 1 1 1 1 1
0 0 0 0 0 0 0 0 0 0 0 0 0 0 0 0 0 0 0 0 0 0 0 0 0 0 0 0 0 0 0 0 1 1 1 1 1 1 1 1 1 1 1
0 0 0 0 0 0 0 0 0 0 0 0 0 0 0 0 0 0 0 0 0 0 0 0 0 0 0 0 0 0 0 0 1 1 1 1 1 1 1 1 1 1 1
0 0 0 0 0 0 0 0 0 0 0 0 0 0 0 0 0 0 0 0 0 0 0 0 0 0 0 0 0 0 0 0 0 1 1 1 1 1 1 1 1 1 1
0 0 0 0 0 0 0 0 0 0 0 0 0 0 0 0 0 0 0 0 0 0 0 0 0 0 0 0 0 0 0 0 0 0 1 1 1 1 1 1 1 1 1
0 0 0 0 0 0 0 0 0 0 0 0 0 0 0 0 0 0 0 0 0 0 0 0 0 0 0 0 0 0 0 0 0 0 0 1 1 1 1 1 1 1 1
0 0 0 0 0 0 0 0 0 0 0 0 0 0 0 0 0 0 0 0 0 0 0 0 0 0 0 0 0 0 0 0 0 0 0 0 0 0 0 0 0 0 1
0 0 0 0 0 0 0 0 0 0 0 0 0 0 0 0 0 0 0 0 0 0 0 0 0 0 0 0 0 0 0 0 0 0 0 0 0 0 0 0 0 0 0
0 0 0 0 0 0 0 0 0 0 0 0 0 0 0 0 0 0 0 0 0 0 0 0 0 0 0 0 0 0 0 0 0 0 0 0 0 0 0 0 0 0 0
0 0 0 0 0 0 0 0 0 0 0 0 0 0 0 0 0 0 0 0 0 0 0 0 0 0 0 0 0 0 0 0 0 0 0 0 0 0 0 0 0 0 0
0 0 0 0 0 0 0 0 0 0 0 0 0 0 0 0 0 0 0 0 0 0 0 0 0 0 0 0 0 0 0 0 0 0 0 0 0 0 0 0 0 0 0
0 0 0 0 0 0 0 0 0 0 0 0 0 0 0 0 0 0 0 0 0 0 0 0 0 0 0 0 0 0 0 0 0 0 0 0 0 0 0 0 0 0 0
0 0 0 0 0 0 0 0 0 0 0 0 0 0 0 0 0 0 0 0 0 0 0 0 0 0 0 0 0 0 0 0 0 0 1 1 1 0 0 0 0 0 0
0 0 0 0 0 0 0 0 0 0 0 0 0 0 0 0 0 0 0 0 0 0 0 0 0 0 0 0 0 0 0 0 0 0 0 1 1 1 1 0 0 0 0
0 0 0 0 0 0 0 0 0 0 0 0 0 0 0 0 0 0 0 0 0 0 0 0 0 0 0 0 0 0 0 0 0 0 0 0 0 0 0 0 0 0 0
0 0 0 0 0 0 0 0 0 0 0 0 0 0 0 0 0 0 0 0 0 0 0 0 0 0 0 0 0 0 0 0 0 0 0 0 0 0 0 0 0 0 0
0 0 0 0 0 0 0 0 0 0 0 0 0 0 0 0 0 0 0 0 0 0 0 0 0 0 0 0 0 0 0 0 0 0 0 0 0 0 0 0 0 0 0
0 0 0 0 0 0 0 0 0 0 0 0 0 0 0 0 0 0 0 0 0 0 0 0 0 0 0 0 0 0 0 0 0 0 0 0 0 0 0 0 0 0 0
0 0 0 0 0 0 0 0 0 0 0 0 0 0 0 0 0 0 0 0 0 0 0 0 0 0 0 0 0 0 0 0 0 0 0 0 0 0 0 0 0 0 0
Wind_Speed
2 2 2 2 2 2 2 3 3 3 4 4 4 4 4 3 3 3 3 6 6 6 6 6 6 7 7 6 6 6 6 6 6 6 6 5 4 5 5 5 5 4 3
2 2 2 2 2 2 2 2 2 3 3 3 4 4 4 3 4 4 4 5 8 8 8 7 7 7 7 7 7 7 7 6 6 6 6 5 5 4 4 4 4 4 4
2 2 2 2 2 2 2 3 3 3 3 3 4 4 4 4 4 5 5 4 4 8 9 9 8 8 7 7 6 6 7 7 6 6 6 6 5 5 4 3 3 3 3
2 2 2 1 1 2 2 2 2 3 3 3 3 4 4 4 5 5 5 5 4 5 7 9 9 9 8 8 7 6 6 6 6 6 6 6 5 5 4 3 3 3 2
2 2 2 1 2 2 2 2 2 2 3 3 3 4 4 4 4 5 5 5 5 5 5 7 10 10 9 9 8 8 7 6 6 6 6 6 5 5 4 4 3 2 2
2 2 2 2 2 2 2 2 3 3 2 3 4 5 4 4 4 4 4 4 4 5 5 5 5 6 9 9 8 8 7 7 7 7 6 6 6 5 4 3 3 2 2
2 2 2 2 2 2 2 2 2 3 2 2 3 3 3 4 4 3 3 3 4 4 4 5 4 4 4 8 8 7 7 7 6 6 6 6 6 5 4 4 3 2 2
1 2 2 2 2 2 2 2 2 2 1 1 2 2 2 3 3 3 3 3 3 3 4 4 4 4 3 3 6 8 8 7 7 6 6 6 5 5 4 4 3 3 2
1 1 2 2 2 2 2 2 2 3 1 1 1 2 2 1 1 2 2 2 2 2 2 2 3 3 3 3 3 6 7 8 7 7 7 7 7 6 4 4 4 3 3
1 1 2 2 2 2 2 2 2 1 2 1 1 2 1 2 2 1 2 2 2 2 2 2 2 2 2 2 3 5 6 7 7 7 7 7 7 6 5 5 4 4 4
1 1 1 2 2 1 2 1 2 2 2 2 1 1 1 2 1 2 0 2 2 2 1 1 2 2 2 2 2 4 6 6 7 7 7 7 7 7 6 5 5 4 4
1 1 1 1 1 1 2 2 2 2 2 2 1 1 2 1 1 2 1 1 1 2 1 1 1 1 2 2 3 5 5 6 6 6 7 7 7 8 7 5 5 5 4
0 1 0 0 1 1 2 2 2 2 2 2 2 1 1 1 1 2 2 1 0 1 2 1 1 1 1 2 2 5 5 5 5 5 6 6 7 7 7 6 4 4 4
1 1 0 0 0 1 1 2 2 1 1 2 2 1 1 1 1 2 2 2 1 1 2 2 1 1 2 1 3 4 3 5 5 5 5 5 5 6 7 6 5 4 4
1 0 0 0 0 1 1 2 1 1 2 1 1 2 1 1 1 1 1 2 3 1 2 2 1 1 1 1 3 2 2 5 5 5 5 5 5 5 6 6 5 4 5
1 1 1 1 0 1 1 1 1 1 2 1 1 2 1 1 1 1 1 1 2 3 2 2 2 1 1 1 2 2 2 5 5 5 5 5 5 4 4 4 4 4 4
1 1 1 1 1 1 1 1 1 2 2 1 1 2 1 1 1 1 1 1 1 2 2 2 1 1 1 1 2 2 2 2 3 5 5 5 5 5 5 4 4 4 4
1 1 1 1 1 1 1 2 1 2 2 2 2 2 2 2 1 1 1 1 2 2 2 2 1 1 1 1 1 2 2 2 2 5 5 5 5 4 4 4 4 4 4
1 1 1 1 1 1 1 1 1 2 2 3 3 3 3 3 2 2 2 2 1 1 1 2 1 0 1 1 1 2 2 2 3 3 4 5 5 4 4 4 4 3 3
1 1 1 1 1 1 1 1 1 1 1 2 2 3 3 4 4 3 3 2 2 2 1 1 1 0 0 1 0 1 2 2 3 3 4 4 4 5 5 5 4 4 3
1 1 1 1 0 1 1 1 1 1 1 1 1 1 2 4 4 3 3 3 3 2 2 1 1 0 0 0 1 1 1 2 2 1 2 2 2 2 3 4 4 4 4
1 1 1 1 1 1 1 1 1 1 1 1 1 1 2 2 3 3 4 4 5 4 3 2 2 2 2 2 1 1 1 1 2 2 1 2 1 2 2 2 4 4 4
1 1 1 1 1 1 1 1 1 2 1 1 1 1 1 1 1 1 2 2 3 4 5 4 3 3 3 3 3 2 2 1 2 2 1 2 2 2 2 3 5 4 4
2 2 1 1 1 1 1 1 1 1 1 1 1 1 1 1 1 2 2 1 1 1 2 2 3 3 3 3 4 3 2 1 0 1 0 1 2 3 3 3 4 4 4
1 1 1 1 1 1 1 1 2 1 1 0 0 0 1 1 2 1 2 2 1 1 1 1 1 1 1 1 2 2 2 1 1 2 1 1 2 2 3 2 3 4 4
2 1 1 1 1 1 1 1 2 1 1 0 0 1 1 1 1 2 2 2 2 2 1 1 1 1 0 1 2 2 3 2 1 2 2 1 1 1 2 2 2 2 3
Wind_Direction
67 56 43 39 42 47 52 49 51 52 49 46 45 49 45 42 37 33 13 29 46 59 67 73 78 80 84 83 78 74 71 72 64 57 60 65 60 50 46 48 49 54 56
95 82 55 44 44 52 55 62 60 62 55 53 47 46 46 45 45 45 35 27 38 48 54 62 74 77 77 78 76 71 65 63 62 56 54 60 63 62 61 49 42 42 39
111 105 88 62 46 55 64 66 60 62 61 54 47 47 51 49 52 50 43 35 30 40 44 53 63 67 66 69 73 74 67 59 56 54 54 55 59 60 59 50 38 36 35
112 104 96 78 69 69 70 79 67 68 59 55 52 45 48 48 52 53 49 42 37 32 33 43 52 58 59 57 58 63 63 57 52 49 52 51 52 51 45 41 36 36 39
107 109 107 97 89 81 69 82 69 76 76 67 66 54 46 46 45 50 47 43 41 39 34 34 42 46 48 47 49 54 53 50 49 51 52 46 44 41 34 31 33 34 40
110 110 109 97 97 93 75 78 83 66 77 80 75 62 47 42 44 43 41 41 41 42 40 37 30 26 33 34 36 40 41 43 47 50 47 40 35 33 28 26 27 27 26
109 115 113 100 101 108 109 105 100 83 66 70 79 57 36 40 45 37 34 40 36 36 40 39 34 26 16 22 26 29 31 37 44 41 38 34 26 23 21 24 22 20 12
93 122 127 127 120 116 100 103 112 107 77 57 100 97 37 12 18 29 30 39 29 31 34 35 36 31 18 9 13 25 26 27 32 32 30 22 17 13 10 9 7 17 10
72 100 127 131 128 133 142 140 130 125 130 52 72 123 130 181 329 356 19 29 23 29 18 22 30 24 17 10 1 14 22 19 17 21 25 21 17 16 19 18 16 11 5
58 72 118 126 129 131 141 156 131 123 127 121 51 52 106 144 144 6 347 360 10 22 12 13 13 13 12 5 8 15 15 12 11 12 13 14 14 14 22 24 20 14 9
47 66 109 123 134 139 146 140 128 124 126 136 136 113 76 68 99 141 251 320 347 346 356 353 2 2 360 358 350 10 12 11 8 7 8 10 10 10 17 21 22 23 19
13 39 91 111 145 149 160 165 156 144 137 125 122 127 143 148 165 152 174 242 303 309 329 353 5 352 356 354 354 14 14 14 13 13 10 9 10 9 11 13 15 21 20
327 318 54 121 162 169 168 154 148 156 150 141 146 152 155 172 157 151 147 173 292 317 332 325 318 351 355 354 346 7 10 17 15 12 10 12 10 5 1 359 5 20 21
229 242 198 167 182 155 164 150 152 172 152 158 161 155 149 167 146 155 156 149 121 342 334 304 316 328 334 333 353 0 353 12 11 7 7 8 6 4 1 4 10 19 21
205 195 178 146 135 154 152 151 157 174 155 166 171 157 152 171 156 157 145 154 152 169 280 275 286 301 310 324 354 356 338 356 4 5 3 2 1 3 7 16 21 23 20
168 135 142 152 131 129 128 135 156 171 153 167 160 147 150 163 150 141 151 156 152 159 205 252 247 270 297 351 3 358 334 349 352 358 3 2 359 359 2 10 16 18 17
167 154 161 164 165 154 155 145 183 165 156 165 169 164 179 158 148 148 140 144 146 142 174 267 275 303 335 343 346 351 346 350 342 353 358 360 358 358 0 6 10 13 11
179 176 147 144 157 146 167 175 191 172 174 187 197 177 190 170 167 173 166 177 177 171 164 204 268 306 325 316 333 344 345 348 340 344 350 353 355 354 355 1 5 12 17
177 147 125 155 165 165 170 185 193 192 191 197 197 194 199 180 192 193 187 187 186 169 151 158 206 267 317 330 355 342 344 343 336 339 344 346 347 346 350 354 356 353 353
157 154 174 201 192 184 186 184 175 186 196 201 204 206 201 197 201 192 190 188 166 149 140 142 168 209 264 315 9 337 337 345 334 345 352 347 345 344 342 339 341 342 337
160 162 152 159 160 172 198 172 172 178 189 211 225 228 220 212 207 194 188 183 168 161 154 156 178 164 247 250 245 245 295 323 319 328 332 333 337 339 334 327 330 337 339
154 147 157 161 172 240 236 187 167 171 182 201 231 249 248 231 226 214 207 194 177 171 179 179 196 208 228 221 209 218 216 320 305 317 333 314 336 318 312 305 320 323 324
156 162 183 172 195 239 226 196 174 158 168 201 225 235 256 264 225 191 198 197 209 212 193 187 191 215 214 211 187 202 216 218 240 268 298 293 302 295 300 310 316 320 323
176 192 202 200 198 256 257 208 166 139 139 177 214 222 221 254 229 186 162 142 188 228 229 204 199 216 215 195 190 195 197 181 288 290 212 256 291 297 307 304 313 318 322
191 199 195 186 185 253 258 195 145 138 134 231 280 294 216 231 253 162 140 156 207 282 278 244 228 232 231 181 150 112 111 102 299 279 227 222 269 300 302 295 305 315 314
197 185 187 194 186 223 237 193 155 139 149 218 321 307 295 264 266 165 158 173 216 253 274 332 340 338 336 186 177 172 173 177 232 263 227 209 242 301 304 293 307 313 310